Sanford, NC

6:20 AM EDT on March 30, 2017 (GMT -0400)
Raleigh Executive Jetport

Weather History for KTTA - March, 2014

Change the Weather History Date:

Tuesday, March 25, 2014

  Actual Average (KHRJ) Record (KHRJ)
Temperature  
Mean Temperature 38 °F -  
Max Temperature 45 °F 66 °F 84 °F (2002)
Min Temperature 32 °F 39 °F 26 °F (1971)
Degree Days  
Heating Degree Days 26    
Moisture  
Dew Point 32 °F    
Average Humidity 77    
Maximum Humidity 91    
Minimum Humidity 53    
Precipitation  
Precipitation 0.03 in - - ()
Sea Level Pressure  
Sea Level Pressure 29.92 in    
Wind  
Wind Speed 2 mph (NW)    
Max Wind Speed 10 mph    
Max Gust Speed 17 mph    
Visibility 10 miles    
Events Rain    
Averages and records for this station are not official NWS values.
T = Trace of Precipitation, MM = Missing Value Source: NWS Daily Summary

Daily Weather History Graph

Daily Weather History Graph

Search for Another Location

Airport or City:

Trip Planner

Search our weather history database for the weather conditions in past years. The results will help you decide how hot, cold, wet, or windy it might be!

Date:

Astronomy

Mar. 25, 2014 Rise Set
Actual Time 7:12 AM EDT 7:32 PM EDT
Civil Twilight 6:47 AM EDT 7:57 PM EDT
Nautical Twilight 6:17 AM EDT 8:27 PM EDT
Astronomical Twilight 5:47 AM EDT 8:58 PM EDT
Moon 3:22 AM EDT (3/25) 2:10 PM EDT (3/25)
Length of Visible Light 13h 10m
Length of Day
12h 19m
Waning Crescent, 32% of the Moon is Illuminated
Mar 25
Waning Crescent
Mar 30
New
Apr 7
First Quarter
Apr 15
Full
Apr 22
Last Quarter

Hourly Weather History & Observations

Time (EDT) Temp. Windchill Dew Point Humidity Pressure Visibility Wind Dir Wind Speed Gust Speed Precip Events Conditions
12:15 AM 33.1 °F - 28.8 °F 84% 30.11 in 10.0 mi Calm Calm - N/A   Unknown
12:35 AM 36.7 °F - 27.3 °F 69% 30.10 in 10.0 mi Calm Calm - N/A   Unknown
12:55 AM 34.7 °F - 28.9 °F 79% 30.09 in 10.0 mi Calm Calm - N/A   Unknown
1:15 AM 33.3 °F - 29.8 °F 87% 30.09 in 10.0 mi Calm Calm - N/A   Unknown
1:35 AM 32.5 °F - 29.5 °F 88% 30.09 in 10.0 mi Calm Calm - N/A   Unknown
1:55 AM 32.7 °F - 28.8 °F 85% 30.08 in 10.0 mi Calm Calm - N/A   Unknown
2:15 AM 32.0 °F - 29.7 °F 91% 30.07 in 10.0 mi Calm Calm - N/A   Unknown
2:35 AM 33.4 °F - 30.2 °F 88% 30.07 in 10.0 mi Calm Calm - N/A   Unknown
2:55 AM 33.4 °F - 30.4 °F 89% 30.05 in 10.0 mi Calm Calm - N/A   Unknown
3:15 AM 36.0 °F - 29.7 °F 78% 30.04 in 10.0 mi Calm Calm - N/A   Unknown
3:35 AM 35.8 °F - 29.1 °F 77% 30.02 in 10.0 mi Calm Calm - N/A   Unknown
3:55 AM 34.0 °F - 29.8 °F 85% 30.01 in 10.0 mi Calm Calm - N/A   Unknown
4:15 AM 35.8 °F - 30.2 °F 80% 30.01 in 10.0 mi Calm Calm - N/A   Unknown
4:35 AM 32.9 °F - 29.8 °F 88% 30.01 in 10.0 mi Calm Calm - N/A   Unknown
4:55 AM 33.8 °F - 30.7 °F 89% 29.99 in 10.0 mi Calm Calm - N/A   Unknown
5:15 AM 33.6 °F - 31.1 °F 90% 29.99 in 10.0 mi Calm Calm - N/A   Unknown
5:35 AM 33.3 °F - 30.6 °F 90% 29.99 in 10.0 mi Calm Calm - N/A   Unknown
5:55 AM 33.1 °F - 30.4 °F 90% 29.98 in 10.0 mi Calm Calm - N/A   Unknown
6:15 AM 34.7 °F - 30.2 °F 84% 29.98 in 10.0 mi Calm Calm - N/A   Unknown
6:35 AM 33.1 °F - 30.6 °F 90% 29.97 in 10.0 mi Calm Calm - N/A   Unknown
6:55 AM 35.4 °F - 30.9 °F 84% 29.97 in 10.0 mi Calm Calm - N/A   Unknown
7:15 AM 34.3 °F - 31.8 °F 90% 29.97 in 10.0 mi Calm Calm - N/A   Unknown
7:35 AM 35.1 °F - 31.1 °F 85% 29.96 in 10.0 mi Calm Calm - N/A   Unknown
7:55 AM 34.3 °F - 32.0 °F 91% 29.94 in 10.0 mi Calm Calm - N/A   Unknown
8:15 AM 35.8 °F 33.0 °F 32.0 °F 86% 29.92 in 10.0 mi East 3.5 mph - N/A   Unknown
8:35 AM 36.9 °F 33.1 °F 31.8 °F 82% 29.90 in 10.0 mi ESE 4.6 mph - N/A   Unknown
8:55 AM 38.7 °F - 31.5 °F 75% 29.91 in 10.0 mi Calm Calm - N/A   Unknown
9:15 AM 40.8 °F - 31.5 °F 69% 29.93 in 10.0 mi Calm Calm - N/A   Unknown
9:35 AM 42.3 °F 40.5 °F 31.3 °F 65% 29.95 in 10.0 mi WSW 3.5 mph - N/A   Unknown
9:55 AM 43.0 °F - 30.9 °F 62% 29.96 in 10.0 mi Calm Calm - N/A   Unknown
10:15 AM 43.3 °F 40.7 °F 30.6 °F 61% 29.96 in 10.0 mi North 4.6 mph - N/A   Unknown
10:35 AM 43.7 °F 41.1 °F 31.1 °F 61% 29.94 in 10.0 mi NW 4.6 mph - N/A   Unknown
10:55 AM 45.0 °F 42.6 °F 30.7 °F 57% 29.93 in 10.0 mi North 4.6 mph - N/A   Unknown
11:15 AM 45.3 °F 41.1 °F 31.1 °F 58% 29.92 in 10.0 mi North 8.1 mph - N/A   Unknown
11:35 AM 44.8 °F 39.9 °F 31.5 °F 60% 29.89 in 10.0 mi NNE 9.2 mph - N/A   Unknown
11:55 AM 44.2 °F 41.0 °F 30.9 °F 60% 29.89 in 10.0 mi North 5.8 mph - N/A   Unknown
12:15 PM 43.9 °F 40.5 °F 31.5 °F 62% 29.88 in 10.0 mi North 5.8 mph - N/A   Light Drizzle
12:35 PM 44.2 °F - 31.8 °F 62% 29.87 in 10.0 mi Calm Calm - N/A Rain Light Rain
12:55 PM 43.7 °F 42.1 °F 31.8 °F 63% 29.86 in 10.0 mi North 3.5 mph - N/A Rain Light Rain
1:15 PM 43.3 °F 40.7 °F 33.1 °F 67% 29.84 in 10.0 mi North 4.6 mph - N/A Rain Light Rain
1:35 PM 43.9 °F 42.3 °F 34.0 °F 68% 29.83 in 10.0 mi North 3.5 mph - N/A Rain Light Rain
2:15 PM 43.2 °F 39.7 °F 34.5 °F 72% 29.82 in 10.0 mi NNW 5.8 mph - N/A Rain Light Rain
2:35 PM 42.4 °F 38.8 °F 36.3 °F 79% 29.81 in 10.0 mi NNW 5.8 mph - N/A Rain Light Rain
2:55 PM 42.8 °F 38.0 °F 36.5 °F 78% 29.80 in 10.0 mi North 8.1 mph - 0.01 in Rain Light Rain
3:15 PM 42.1 °F 37.1 °F 36.5 °F 81% 29.79 in 10.0 mi NNW 8.1 mph - N/A Rain Light Rain
3:35 PM 41.9 °F 37.5 °F 37.2 °F 83% 29.79 in 10.0 mi NNW 6.9 mph - N/A Rain Rain
3:55 PM 41.7 °F 39.8 °F 37.2 °F 84% 29.78 in 10.0 mi North 3.5 mph - N/A   Drizzle
4:15 PM 41.9 °F 39.0 °F 37.2 °F 83% 29.78 in 10.0 mi NNW 4.6 mph - N/A Rain Light Rain
4:35 PM 42.1 °F 40.2 °F 37.4 °F 83% 29.77 in 10.0 mi NNW 3.5 mph - N/A   Light Drizzle
4:55 PM 42.4 °F 38.1 °F 37.6 °F 83% 29.78 in 10.0 mi WNW 6.9 mph - N/A Rain Light Rain
5:15 PM 42.8 °F 38.0 °F 36.7 °F 79% 29.78 in 10.0 mi West 8.1 mph - N/A Rain Light Rain
5:35 PM 42.3 °F 37.9 °F 37.6 °F 83% 29.78 in 7.0 mi WNW 6.9 mph - N/A Rain Rain
5:55 PM 41.5 °F 36.4 °F 38.7 °F 89% 29.79 in 5.0 mi NW 8.1 mph - 0.01 in Rain Rain
6:15 PM 41.9 °F 37.5 °F 39.4 °F 91% 29.79 in 10.0 mi WNW 6.9 mph - N/A Rain Light Rain
6:35 PM 42.3 °F 37.3 °F 39.2 °F 89% 29.80 in 10.0 mi WNW 8.1 mph - 0.01 in   Unknown
6:55 PM 41.9 °F 36.3 °F 38.3 °F 87% 29.81 in 10.0 mi NW 9.2 mph - 0.01 in   Unknown
7:15 PM 41.4 °F 36.8 °F 36.7 °F 83% 29.82 in 10.0 mi NW 6.9 mph - N/A   Unknown
7:35 PM 41.0 °F 35.8 °F 35.6 °F 81% 29.83 in 10.0 mi NW 8.1 mph - N/A   Unknown
7:55 PM 40.6 °F 34.8 °F 35.4 °F 82% 29.84 in 10.0 mi WNW 9.2 mph - N/A   Unknown
8:15 PM 40.3 °F 36.3 °F 35.1 °F 82% 29.86 in 10.0 mi NW 5.8 mph - N/A   Unknown
8:35 PM 40.1 °F 38.0 °F 35.1 °F 82% 29.87 in 10.0 mi NNW 3.5 mph - N/A   Unknown
8:55 PM 40.1 °F 36.1 °F 34.7 °F 81% 29.88 in 10.0 mi NW 5.8 mph - N/A   Unknown
9:15 PM 40.1 °F 36.1 °F 33.3 °F 77% 29.88 in 10.0 mi NW 5.8 mph - N/A   Unknown
9:35 PM 39.4 °F 36.1 °F 33.1 °F 78% 29.89 in 10.0 mi NW 4.6 mph - N/A   Unknown
9:55 PM 38.5 °F 35.0 °F 32.9 °F 80% 29.90 in 10.0 mi NW 4.6 mph - N/A   Unknown
10:15 PM 38.7 °F 32.9 °F 31.8 °F 76% 29.92 in 10.0 mi NW 8.1 mph - N/A   Unknown
10:35 PM 39.0 °F 32.8 °F 28.6 °F 66% 29.92 in 10.0 mi NW 9.2 mph - N/A   Unknown
10:55 PM 39.2 °F 32.5 °F 25.9 °F 59% 29.93 in 10.0 mi WNW 10.4 mph 17.3 mph N/A   Unknown
11:15 PM 38.8 °F 33.8 °F 24.4 °F 56% 29.94 in 10.0 mi WNW 6.9 mph - N/A   Unknown
11:35 PM 38.8 °F 33.8 °F 23.2 °F 53% 29.95 in 10.0 mi WNW 6.9 mph - N/A   Unknown
11:55 PM 38.5 °F 32.1 °F 22.6 °F 53% 29.95 in 10.0 mi WNW 9.2 mph - N/A   Unknown